Beatrice, NE

10:00 PM CDT on August 21, 2017 (GMT -0500)
Beatrice Municipal

Weather History for KBIE - October, 2013

Change the Weather History Date:

Friday, October 4, 2013

  Actual Average Record
Temperature  
Mean Temperature 68 °F -  
Max Temperature 85 °F 76 °F 93 °F (1954)
Min Temperature 50 °F 47 °F 28 °F (1999)
Cooling Degree Days 2    
Growing Degree Days 18 (Base 50)    
Moisture  
Dew Point 59 °F    
Average Humidity 73    
Maximum Humidity 98    
Minimum Humidity 35    
Precipitation  
Precipitation 0.08 in - - ()
Sea Level Pressure  
Sea Level Pressure 29.75 in    
Wind  
Wind Speed 11 mph (SSE)    
Max Wind Speed 24 mph    
Max Gust Speed 32 mph    
Visibility 10 miles    
Events Rain , Thunderstorm    
Averages and records for this station are not official NWS values.
T = Trace of Precipitation, MM = Missing Value Source: NWS Daily Summary

Daily Weather History Graph

Daily Weather History Graph

Search for Another Location

Airport or City:

Trip Planner

Search our weather history database for the weather conditions in past years. The results will help you decide how hot, cold, wet, or windy it might be!

Date:

Astronomy

Oct. 04, 2013 Rise Set
Actual Time 7:26 AM CDT 7:03 PM CDT
Civil Twilight 6:59 AM CDT 7:30 PM CDT
Nautical Twilight 6:28 AM CDT 8:02 PM CDT
Astronomical Twilight 5:56 AM CDT 8:34 PM CDT
Moon 7:03 AM CDT (10/4) 6:47 PM CDT (10/4)
Length of Visible Light 12h 31m
Length of Day
11h 37m
Waning Crescent, 0% of the Moon is Illuminated
Oct 4
Waning Crescent
Oct 4
New
Oct 11
First Quarter
Oct 18
Full
Oct 26
Last Quarter

Hourly Weather History & Observations

Time (CDT) Temp. Heat Index Dew Point Humidity Pressure Visibility Wind Dir Wind Speed Gust Speed Precip Events Conditions
12:15 AM 63.5 °F - 61.7 °F 94% 29.76 in 10.0 mi NE 8.1 mph - 0.08 in Rain , Thunderstorm Light Thunderstorms and Rain
12:35 AM 63.7 °F - 62.1 °F 94% 29.75 in 10.0 mi ESE 5.8 mph - 0.08 in   Overcast
12:55 AM 63.5 °F - 62.4 °F 96% 29.73 in 10.0 mi East 6.9 mph - 0.08 in   Mostly Cloudy
1:15 AM 63.5 °F - 62.2 °F 96% 29.73 in 10.0 mi East 8.1 mph - N/A   Scattered Clouds
1:35 AM 63.9 °F - 62.2 °F 94% 29.72 in 10.0 mi East 8.1 mph - N/A   Scattered Clouds
1:55 AM 64.8 °F - 63.0 °F 94% 29.73 in 10.0 mi ESE 8.1 mph - N/A   Scattered Clouds
2:15 AM 66.0 °F - 64.0 °F 93% 29.72 in 10.0 mi East 9.2 mph - N/A   Clear
2:35 AM 66.2 °F - 64.6 °F 94% 29.72 in 10.0 mi ESE 6.9 mph - N/A   Clear
2:55 AM 68.0 °F - 65.8 °F 93% 29.72 in 10.0 mi ESE 9.2 mph - N/A   Clear
3:15 AM 68.7 °F - 66.6 °F 93% 29.71 in 10.0 mi ESE 9.2 mph - N/A   Clear
3:35 AM 68.9 °F - 66.9 °F 93% 29.71 in 10.0 mi East 6.9 mph - N/A   Clear
3:55 AM 68.2 °F - 66.2 °F 93% 29.71 in 10.0 mi NE 9.2 mph - N/A   Clear
4:15 AM 64.4 °F - 63.5 °F 97% 29.72 in 7.0 mi ENE 10.4 mph - N/A   Clear
4:35 AM 64.8 °F - 63.7 °F 96% 29.72 in 7.0 mi ENE 9.2 mph - N/A   Clear
4:55 AM 63.9 °F - 63.0 °F 97% 29.72 in 10.0 mi ENE 10.4 mph - N/A   Clear
5:15 AM 65.3 °F - 64.0 °F 96% 29.72 in 10.0 mi ENE 8.1 mph - N/A   Clear
5:35 AM 64.2 °F - 63.5 °F 98% 29.73 in 7.0 mi NE 9.2 mph - N/A   Clear
5:55 AM 65.3 °F - 64.4 °F 97% 29.74 in 7.0 mi ENE 5.8 mph - N/A   Scattered Clouds
7:15 AM 65.5 °F - 64.4 °F 96% 29.74 in 7.0 mi ENE 9.2 mph - N/A   Overcast
7:35 AM 65.5 °F - 64.4 °F 96% 29.74 in 10.0 mi East 10.4 mph - N/A   Overcast
7:55 AM 65.7 °F - 64.4 °F 96% 29.73 in 7.0 mi East 9.2 mph - N/A   Overcast
8:15 AM 66.2 °F - 64.8 °F 95% 29.74 in 7.0 mi East 8.1 mph - N/A   Overcast
8:35 AM 66.6 °F - 64.9 °F 95% 29.74 in 7.0 mi East 9.2 mph - N/A   Overcast
8:55 AM 67.1 °F - 65.3 °F 94% 29.74 in 7.0 mi East 6.9 mph - N/A   Overcast
9:15 AM 67.3 °F - 65.5 °F 94% 29.74 in 10.0 mi East 6.9 mph - N/A   Overcast
9:35 AM 67.6 °F - 65.7 °F 93% 29.74 in 10.0 mi East 6.9 mph - N/A   Overcast
9:55 AM 69.3 °F - 66.9 °F 92% 29.73 in 10.0 mi ESE 9.2 mph - N/A   Overcast
10:15 AM 70.7 °F - 67.5 °F 89% 29.72 in 10.0 mi ESE 6.9 mph - N/A   Overcast
10:35 AM 73.2 °F - 68.2 °F 84% 29.72 in 10.0 mi SE 10.4 mph - N/A   Overcast
10:55 AM 74.8 °F - 68.9 °F 82% 29.71 in 10.0 mi SE 12.7 mph 16.1 mph N/A   Overcast
11:15 AM 75.0 °F - 68.7 °F 81% 29.71 in 10.0 mi SSE 13.8 mph 18.4 mph N/A   Overcast
11:35 AM 75.2 °F - 68.9 °F 81% 29.71 in 10.0 mi SSE 15.0 mph - N/A   Overcast
11:55 AM 75.9 °F - 68.9 °F 79% 29.70 in 10.0 mi SSE 12.7 mph - N/A   Overcast
12:15 PM 77.2 °F - 69.6 °F 77% 29.70 in 10.0 mi South 12.7 mph 18.4 mph N/A   Overcast
12:35 PM 78.1 °F - 69.1 °F 74% 29.70 in 10.0 mi South 12.7 mph 19.6 mph N/A   Overcast
12:55 PM 79.7 °F - 68.7 °F 69% 29.68 in 10.0 mi South 18.4 mph 21.9 mph N/A   Mostly Cloudy
1:15 PM 80.4 °F 83.2 °F 68.4 °F 67% 29.68 in 10.0 mi South 17.3 mph 23.0 mph N/A   Scattered Clouds
1:35 PM 80.6 °F 83.2 °F 68.0 °F 65% 29.67 in 10.0 mi South 19.6 mph 26.5 mph N/A   Mostly Cloudy
1:55 PM 82.0 °F 84.7 °F 67.3 °F 61% 29.66 in 10.0 mi South 23.0 mph 28.8 mph N/A   Mostly Cloudy
2:15 PM 81.9 °F 84.4 °F 67.1 °F 61% 29.66 in 10.0 mi South 13.8 mph 18.4 mph N/A   Mostly Cloudy
2:35 PM 82.8 °F 85.3 °F 66.9 °F 59% 29.66 in 10.0 mi South 20.7 mph 26.5 mph N/A   Mostly Cloudy
2:55 PM 84.0 °F 86.5 °F 66.9 °F 56% 29.65 in 10.0 mi South 19.6 mph 29.9 mph N/A   Scattered Clouds
3:15 PM 83.8 °F 86.5 °F 67.1 °F 57% 29.65 in 10.0 mi South 16.1 mph 23.0 mph N/A   Mostly Cloudy
3:35 PM 84.7 °F 86.6 °F 65.3 °F 52% 29.65 in 10.0 mi South 15.0 mph 31.1 mph N/A   Scattered Clouds
3:55 PM 85.8 °F 87.1 °F 63.9 °F 48% 29.64 in 10.0 mi SSW 17.3 mph 28.8 mph N/A   Mostly Cloudy
4:15 PM 85.1 °F 85.9 °F 62.8 °F 47% 29.64 in 10.0 mi SSW 19.6 mph 26.5 mph N/A   Mostly Cloudy
4:35 PM 84.4 °F 83.8 °F 58.5 °F 41% 29.65 in 10.0 mi WSW 18.4 mph 31.1 mph N/A   Scattered Clouds
4:55 PM 83.5 °F 82.6 °F 56.3 °F 39% 29.66 in 10.0 mi SW 18.4 mph 25.3 mph N/A   Clear
5:15 PM 82.9 °F - 52.3 °F 35% 29.67 in 10.0 mi WSW 19.6 mph 25.3 mph N/A   Clear
5:35 PM 80.4 °F 80.3 °F 54.9 °F 41% 29.69 in 10.0 mi West 19.6 mph 31.1 mph N/A   Clear
5:55 PM 78.4 °F - 57.9 °F 49% 29.70 in 10.0 mi West 18.4 mph 26.5 mph N/A   Clear
6:15 PM 76.1 °F - 56.8 °F 51% 29.72 in 10.0 mi West 18.4 mph 26.5 mph N/A   Clear
6:35 PM 74.3 °F - 56.3 °F 53% 29.76 in 10.0 mi West 13.8 mph 25.3 mph N/A   Mostly Cloudy
6:55 PM 71.4 °F - 54.7 °F 55% 29.79 in 10.0 mi West 16.1 mph 21.9 mph N/A   Mostly Cloudy
7:15 PM 68.7 °F - 51.8 °F 55% 29.80 in 10.0 mi West 13.8 mph 25.3 mph N/A   Scattered Clouds
7:35 PM 67.5 °F - 51.1 °F 56% 29.81 in 10.0 mi West 15.0 mph 19.6 mph N/A   Scattered Clouds
7:55 PM 66.6 °F - 50.0 °F 55% 29.82 in 10.0 mi West 11.5 mph 20.7 mph N/A   Mostly Cloudy
8:15 PM 64.8 °F - 46.8 °F 52% 29.84 in 10.0 mi West 19.6 mph 23.0 mph N/A   Overcast
8:35 PM 62.2 °F - 44.4 °F 52% 29.85 in 10.0 mi West 18.4 mph 23.0 mph N/A   Mostly Cloudy
8:55 PM 59.9 °F - 39.4 °F 47% 29.85 in 10.0 mi West 20.7 mph 32.2 mph N/A   Scattered Clouds
9:15 PM 58.3 °F - 40.5 °F 52% 29.87 in 10.0 mi West 17.3 mph 27.6 mph N/A   Clear
9:35 PM 56.8 °F - 39.9 °F 53% 29.88 in 10.0 mi West 18.4 mph 25.3 mph N/A   Clear
9:55 PM 55.6 °F - 40.3 °F 56% 29.89 in 10.0 mi West 18.4 mph 26.5 mph N/A   Scattered Clouds
10:15 PM 54.9 °F - 38.8 °F 55% 29.89 in 10.0 mi West 24.2 mph 31.1 mph N/A   Mostly Cloudy
10:35 PM 53.6 °F - 38.5 °F 57% 29.90 in 10.0 mi WNW 21.9 mph 27.6 mph N/A   Mostly Cloudy
10:55 PM 52.7 °F - 38.3 °F 58% 29.93 in 10.0 mi West 17.3 mph 26.5 mph N/A   Mostly Cloudy
11:15 PM 51.8 °F - 38.3 °F 60% 29.95 in 10.0 mi West 16.1 mph 24.2 mph N/A   Mostly Cloudy
11:35 PM 50.9 °F - 37.0 °F 59% 29.96 in 10.0 mi West 11.5 mph 19.6 mph N/A   Overcast
11:55 PM 50.0 °F - 36.3 °F 59% 29.97 in 10.0 mi West 16.1 mph 19.6 mph N/A   Overcast